Location: Jivina
(49.7936°N, 13.8376°E)
Time: 11:24:15
(UTC+00:00)

Daily predictions for brighter satellites

Satellite Brightness Start Highest point End
(mag) Time Altitude Azimuth Time Altitude Azimuth Time Altitude Azimuth
BREEZE-M DEB (TANK) 4.3 18:49:20 10° WSW 18:53:56 85° SSE 19:13:21 10° ENE
Cosmos 2082 Rocket 2.3 19:12:15 10° S 19:17:50 58° ESE 19:23:27 10° NE
Cosmos 1459 Rocket 4.2 19:12:57 10° S 19:19:11 82° W 19:25:20 10° N
Cosmos 2369 3.8 19:14:46 10° NNW 19:20:32 85° ENE 19:26:16 10° SSE
ADEOS 3.6 19:16:17 10° SSE 19:21:30 81° ENE 19:26:44 10° NNW
Okean 2 Rocket 4.1 19:17:12 10° SSW 19:21:34 51° WNW 19:25:58 10° N
Helios 1A Rocket 2.1 19:21:00 10° NNE 19:24:09 77° ESE 19:27:17 10° S
Cosmos 1802 Rocket 4.0 19:18:19 10° S 19:24:29 84° E 19:30:39 10° N
Cosmos 44 Rocket 4.2 19:21:06 10° SW 19:26:09 59° NW 19:31:19 10° NE
NOSS 3-3 (C) 3.9 19:26:34 10° SSW 19:31:33 49° ESE 19:37:27 10° NE
Meteor 1-31 Rocket 4.3 19:30:27 10° SSW 19:33:34 30° W 19:36:40 10° NNW
Cosmos 1892 Rocket 4.0 19:32:04 10° NNW 19:36:20 60° W 19:40:32 10° S
Cosmos 1455 Rocket 3.3 19:32:04 10° SSW 19:36:27 75° W 19:40:51 10° N
USA 306 2.6 19:34:05 10° W 19:37:21 51° NNW 19:39:36 10° ENE
CZ-4B R/B 3.8 19:35:01 10° ESE 19:37:50 26° ENE 19:40:46 10° N
Okean O Rocket 1.6 19:34:33 10° SSE 19:38:48 68° ENE 19:43:06 10° N
Cosmos 2278 4.3 19:33:40 10° NNW 19:39:11 46° NE 19:44:30 11° SE
Meteor 1-27 4.4 19:36:43 10° SSW 19:42:22 81° WNW 19:47:58 10° N
Cosmos 2228 2.8 19:38:32 10° S 19:42:38 84° E 19:46:46 10° NNE
USA 186 1.5 19:40:57 11° SSE 19:43:28 57° ENE 19:46:11 10° N
NOSS 3-4 (A) 4.2 19:37:17 10° NW 19:43:39 56° NE 19:51:09 10° ESE
SL-16 R/B 2.5 19:38:13 10° NNW 19:43:51 60° ENE 19:49:05 12° SE
NOSS 3-4 (C) 4.2 19:37:55 10° NW 19:44:18 56° NE 19:51:49 10° ESE
Cosmos 1544 Rocket 3.9 19:45:57 10° SSE 19:50:03 43° E 19:54:10 10° NNE
Cosmos 2233 Rocket 4.0 19:45:10 10° S 19:51:22 86° E 19:57:33 10° N
CZ-2C R/B 3.8 19:55:38 13° ESE 19:57:06 19° ENE 19:59:10 10° NNE
COSMOS 2406 3.3 19:53:09 10° S 19:58:45 59° ESE 20:04:24 10° NE
Cosmos 1980 Rocket 3.9 19:54:13 10° NW 19:59:03 29° WSW 20:03:51 10° SSW
Okean-O 2.7 19:55:16 10° S 19:59:39 78° WSW 20:04:02 10° NNW
Cosmos 1782 3.6 19:56:45 10° SSW 20:00:08 45° WNW 20:03:33 10° N
CZ-4 R/B 3.8 19:57:49 10° SW 20:00:19 18° W 20:02:51 10° NW
Ariane Rocket 3.4 19:58:02 14° SE 20:02:13 49° ENE 20:07:05 10° N
Meteor 1-20 Rocket 4.2 19:59:14 10° N 20:04:50 74° ENE 20:09:56 13° SSE
Cosmos 1933 3.6 20:02:11 13° SSE 20:05:18 44° E 20:08:58 10° NNE
SPOT 3 Rocket 3.6 20:01:10 13° SSE 20:05:39 66° ENE 20:10:45 10° N
Cosmos 1758 Rocket 3.5 20:02:14 10° N 20:06:40 85° ENE 20:10:37 13° S
Spot 2 Rocket 3.8 20:02:39 10° S 20:07:38 64° WSW 20:12:38 10° NNW
DNEPR-1 R/B 4.4 20:04:56 10° NW 20:10:19 74° NE 20:15:40 16° SE
Cosmos 2333 Rocket 2.2 20:05:58 10° NNW 20:11:42 82° ENE 20:16:16 17° SSE
Cosmos 1825 Rocket 4.4 20:15:45 10° N 20:19:47 36° ENE 20:22:19 19° SE
Okean 1 4.4 20:22:19 20° ESE 20:23:25 24° E 20:26:21 10° NE
USA 245 4.3 20:19:40 14° SSE 20:24:53 84° WSW 20:30:28 10° NNW
Cosmos 2360 Rocket 2.4 20:19:57 10° NNW 20:25:38 65° ENE 20:29:39 19° SE
Cosmos 1461 2.4 20:23:10 10° SSW 20:26:51 79° SE 20:30:33 10° NE
CZ-4B R/B 3.3 20:25:36 18° SSE 20:29:07 85° ENE 20:34:00 10° NNW
Cosmos 1602 Rocket 3.5 20:26:33 10° N 20:30:53 87° ENE 20:33:49 20° S
CZ-4C R/B 4.0 20:27:03 10° W 20:31:16 31° NNW 20:36:35 10° NE
Cosmos 2333 4.4 20:27:29 10° NNW 20:33:10 63° ENE 20:37:06 21° SE
Cosmos 1777 Rocket 4.0 20:32:35 10° NNW 20:37:51 79° ENE 20:41:10 23° SSE
ISS -3.3 20:34:51 10° W 20:38:10 60° N 20:41:23 11° E
Cosmos 2219 Rocket 2.6 20:33:28 10° NNW 20:39:02 54° NE 20:42:48 20° SE
Meteor 1-25 Rocket 4.3 20:33:52 10° NNW 20:39:33 80° W 20:43:46 18° S
Cosmos 220 Rocket 3.7 20:36:01 11° SSW 20:39:53 78° ESE 20:44:00 10° NNE
Cosmos 1437 Rocket 2.9 20:36:40 11° SSW 20:39:59 64° WNW 20:43:35 10° N
USA 290 2.8 20:39:46 32° SE 20:40:09 34° ESE 20:43:03 10° NE
Helios 1A 4.2 20:43:09 10° NE 20:46:13 22° E 20:46:48 21° ESE
Cosmos 1503 Rocket 4.0 20:41:10 10° NNW 20:46:22 73° ENE 20:49:23 25° SE
Cosmos 2098 Rocket 3.0 20:44:23 19° S 20:47:50 78° E 20:52:00 10° NNE
DEBRIS 3.8 20:44:20 10° W 20:47:50 88° S 20:59:52 10° E
Cosmos 1076 Rocket 3.8 20:45:24 10° N 20:49:35 51° ENE 20:51:27 29° SE
Terra 4.4 20:49:24 10° WSW 20:51:53 14° W 20:54:23 10° NW
RESURS DK-1 4.3 20:51:46 10° N 20:54:45 20° NE 20:57:22 12° E
Cosmos 2151 4.1 20:51:20 10° NNW 20:55:07 36° W 20:58:09 14° SSW
IRS-1C Rocket 4.4 20:53:40 19° S 20:57:22 61° WSW 21:02:37 10° NNW
Cosmos 2322 Rocket 2.3 20:51:45 10° NNW 20:57:25 74° WSW 21:00:46 25° SSE
Cosmos 1486 Rocket 4.2 20:52:13 10° NNW 20:57:27 66° WSW 21:00:35 24° S
Cosmos 1464 Rocket 3.9 20:53:50 17° S 20:58:41 83° E 21:04:54 10° N
Cosmos 1354 Rocket 4.1 20:55:25 10° NNW 21:00:40 67° ENE 21:03:26 28° SE
Cosmos 2082 Rocket 4.1 20:57:11 10° WSW 21:02:15 32° NW 21:07:20 10° NNE
USA 306 3.4 21:02:30 10° WNW 21:04:26 20° N 21:04:50 19° N
Meteor 2-10 4.3 20:59:57 10° NNW 21:05:42 76° W 21:09:14 24° S
Cosmos 1606 Rocket 3.4 21:03:17 25° S 21:05:45 89° E 21:10:05 10° N
CZ-4B R/B 4.3 21:09:42 15° SW 21:11:33 24° W 21:14:26 10° NW
Cosmos 1271 Rocket 4.5 21:12:52 15° E 21:12:52 15° E 21:14:37 10° NE
Cosmos 1766 3.3 21:09:32 10° N 21:12:38 42° ENE 21:13:02 39° E
Cosmos 1726 Rocket 3.2 21:12:35 35° S 21:14:13 80° E 21:18:16 10° NNE
Cosmos 2237 Rocket 4.1 21:10:53 10° N 21:15:16 22° NE 21:19:37 10° E
Okean O Rocket 4.1 21:13:03 10° WSW 21:15:28 15° W 21:17:53 10° NW
Cosmos 540 Rocket 3.5 21:13:16 28° S 21:15:56 62° ESE 21:21:02 10° NNE
Cosmos 1092 Rocket 4.1 21:11:05 10° N 21:17:14 64° ENE 21:20:29 29° SSE
Aureole 1 Rocket 4.1 21:13:16 10° NNW 21:18:55 66° ENE 21:22:39 27° SE
Meteor 1-26 Rocket 4.3 21:17:24 30° SSE 21:20:03 60° E 21:25:39 10° NNE
Cosmos 1805 4.4 21:18:16 10° NNW 21:21:07 28° W 21:22:21 21° SW
Meteor 2-2 Rocket 4.4 21:23:03 31° SSE 21:25:37 56° E 21:31:16 10° NNE
COSMOS 2428 3.5 21:21:23 10° NNW 21:26:52 45° NE 21:30:13 22° ESE
SL-16 R/B 3.7 21:22:54 10° NW 21:27:32 27° WSW 21:30:55 15° SSW
CZ-2C R/B 3.9 21:27:14 20° WSW 21:27:45 21° W 21:29:56 10° NW
Cosmos 468 Rocket 4.3 21:30:32 35° SSE 21:32:18 49° ESE 21:37:22 10° NNE
IKONOS-2 4.4 21:28:18 10° NNE 21:32:26 71° ESE 21:33:38 44° S
Geosat 3.9 21:27:51 10° NE 21:32:50 64° ESE 21:35:08 32° S
NOSS 3-4 (A) 4.3 21:28:08 10° NW 21:34:37 48° WSW 21:38:38 26° S
Cosmos-2242 2.8 21:34:03 46° S 21:35:11 75° E 21:39:19 10° NNE
NOSS 3-4 (C) 4.3 21:28:46 10° NW 21:35:17 48° WSW 21:39:18 27° S
Cosmos 2034 Rocket 4.1 21:32:54 23° SSW 21:37:08 80° W 21:43:31 10° N
USA 234 4.0 21:41:05 10° ENE 21:46:37 29° SE 21:47:10 28° SE
TSX-5 3.2 21:46:49 10° NNW 21:49:57 71° ENE 21:50:06 69° E
Cosmos 2333 Rocket 4.1 21:51:27 10° WNW 21:55:17 19° W 21:58:17 13° SW
Helios 1B rocket 1.8 21:55:10 70° SSW 21:55:30 78° WSW 21:59:00 10° NNW
Cosmos 2279 Rocket 4.1 21:53:17 35° SSE 21:55:56 62° E 22:02:06 10° NNE
Cosmos 1763 Rocket 4.0 21:53:12 17° SW 21:57:10 59° WNW 22:02:23 10° NNE
Meteor 1-14 Rocket 4.3 21:51:39 10° N 21:57:11 64° ENE 21:59:19 37° SE
Cosmos 1470 2.5 21:54:58 10° N 21:58:12 58° ENE 21:58:12 58° ENE
Cosmos 1536 2.7 21:55:04 10° NNW 21:58:44 65° W 21:59:12 57° SW
Cosmos 2221 3.0 21:59:07 40° ESE 21:59:34 41° E 22:03:31 10° NNE
SL-08 ROCKET BODY 4.4 21:53:27 10° N 21:59:40 79° E 22:02:20 36° SSE
Cosmos 1707 2.9 21:59:51 43° WNW 21:59:51 43° WNW 22:02:28 10° N
Cosmos 1898 Rocket 3.5 21:54:57 10° NNW 22:00:09 73° ENE 22:02:04 39° SE
Cosmos 1634 Rocket 3.9 21:57:45 33° S 22:00:47 90° NNW 22:07:02 10° N
CSL-04 DEB 3.9 22:01:35 70° SSW 22:01:55 79° WSW 22:05:33 10° NNW
Cosmos 2297 Rocket 3.4 22:01:44 24° ESE 22:02:30 25° ESE 22:07:00 10° NE
CZ-2C R/B 3.8 21:58:55 10° NNE 22:03:20 58° E 22:04:14 48° SSE
Cosmos 44 3.6 22:00:07 10° NW 22:05:26 60° WSW 22:06:56 43° S
Cosmos 2360 Rocket 3.7 22:04:40 10° NW 22:09:08 24° WSW 22:11:23 19° SW
Meteor 2-6 Rocket 4.3 22:08:15 37° S 22:10:49 84° E 22:16:48 10° NNE
Cosmos 2322 3.6 22:05:55 10° NNW 22:11:40 87° WSW 22:13:46 41° SSE
ISS -3.2 22:11:43 10° WNW 22:14:19 50° W 22:14:19 50° W
Cosmos 2058 Rocket 3.6 22:14:25 34° SW 22:15:56 51° WNW 22:20:11 10° N
GP-B 3.9 22:14:01 10° NNE 22:18:06 38° E 22:18:52 35° ESE
SAR-Lupe-2 3.7 22:20:00 54° ENE 22:20:00 54° ENE 22:23:15 10° N
Helios 1A 4.0 22:17:22 10° N 22:21:01 38° WNW 22:22:30 27° WSW
Cosmos 2219 Rocket 3.4 22:17:51 10° NW 22:22:41 30° WSW 22:24:29 25° SW
Cosmos 2266 Rocket 4.1 22:18:22 10° N 22:24:23 66° ENE 22:26:50 37° SSE
Cosmos 1975 2.4 22:21:35 10° N 22:25:17 85° W 22:25:24 82° SSW
KORONAS-FOTON 4.4 22:25:06 38° W 22:25:26 39° WNW 22:28:40 10° N
Cosmos 841 Rocket 3.4 22:28:15 47° S 22:29:44 74° ESE 22:34:59 10° NNE
RESURS DK-1 2.3 22:28:32 10° NW 22:32:28 60° WSW 22:32:35 60° SW
ARIANE 5 R/B 2.7 22:32:16 53° SSW 22:33:07 66° WSW 22:37:34 10° NNW
Meteor 1-19 Rocket 4.2 22:32:11 42° S 22:34:16 80° E 22:40:14 10° NNE
ALOS 2 2.5 22:33:58 58° S 22:34:46 76° WSW 22:39:11 10° NNW
Cosmos 2322 Rocket 4.4 22:38:02 10° WNW 22:40:26 13° W 22:42:34 11° WSW
Cosmos 1271 Rocket 3.4 22:46:13 36° W 22:46:26 37° WNW 22:49:38 10° N
Cosmos 1842 4.3 22:47:39 27° WNW 22:47:44 27° WNW 22:50:31 10° NNW
SL-16 R/B 3.9 22:42:53 10° NNW 22:47:48 29° NE 22:52:42 10° ESE
Lacrosse 4 Rocket 2.6 22:51:57 28° E 22:51:57 28° E 22:54:56 10° NE
Cosmos 1655 Rocket 4.4 22:46:27 10° N 22:52:35 56° ENE 22:55:28 31° SE
Spot 4 4.4 22:51:57 39° SW 22:52:57 45° W 22:57:34 10° NNW
Cosmos 1766 Rocket 3.9 22:50:15 10° N 22:54:29 55° ENE 22:55:19 47° ESE
PSLV R/B 3.5 22:50:50 10° N 22:55:08 77° WNW 22:55:59 56° SW
Cosmos 2237 Rocket 2.1 22:54:25 10° NNW 23:00:08 87° ENE 23:02:17 40° SSE
CZ-2C R/B 2.6 22:58:57 41° SE 23:00:48 73° ENE 23:06:00 10° N
BREEZE-M DEB (TANK) 3.9 22:49:19 10° WSW 23:02:30 86° NNW 23:05:59 10° ENE
Cosmos 1980 3.6 22:58:36 10° NNW 23:04:17 82° WSW 23:06:13 43° SSE
ARGOS Delta rocket 4.4 22:59:28 10° N 23:04:32 58° WNW 23:06:31 36° SW
Iridium 4 Rocket 4.4 23:04:44 31° SE 23:06:57 45° E 23:12:28 10° NNE
Cosmos 1937 Rocket 4.0 23:03:41 10° NW 23:08:32 43° WSW 23:09:27 39° SW
COSMOS 2428 3.4 23:05:50 10° NW 23:11:01 37° WSW 23:12:11 33° SW
Cosmos 2227 Rocket 3.0 23:11:04 32° SE 23:12:25 36° ESE 23:17:33 10° NE
Meteor 2-4 Rocket 3.7 23:11:49 44° SSE 23:13:27 67° E 23:18:57 10° NNE
NOSS 0 Rocket 4.3 23:07:53 10° NW 23:13:46 48° WSW 23:15:26 38° SSW
Meteor 1-11 Rocket 4.0 23:08:37 10° NNW 23:14:07 53° W 23:15:45 39° SW
MetOp-A 4.0 23:18:10 48° SSW 23:19:10 58° WSW 23:23:49 10° NNW
Cosmos 2263 Rocket 3.4 23:20:54 25° SE 23:22:21 28° ESE 23:27:00 10° NE
Cosmos 1238 Rocket 2.7 23:25:54 68° SSW 23:26:22 81° W 23:30:44 10° N
USA 234 3.2 23:23:41 10° ENE 23:30:15 81° SE 23:34:29 24° SW
SeaSat 1 2.5 23:28:37 33° SE 23:30:48 75° ENE 23:35:44 10° NNW
CZ-2C R/B 3.4 23:27:42 10° N 23:33:25 69° WNW 23:35:48 37° SW
Cosmos 1758 4.0 23:31:18 10° N 23:34:44 40° ENE 23:35:23 36° ESE
Meteor 1-27 Rocket 3.9 23:32:34 38° SW 23:34:48 67° WNW 23:40:33 10° N
ACS3 Solar Sail 2.2 23:29:02 10° NNE 23:34:50 50° E 23:37:20 32° SSE
Cosmos 2221 4.3 23:35:23 18° W 23:36:47 22° WNW 23:40:03 10° NNW
ATLAS 2AS CENTAUR R/B 3.9 23:32:27 10° NW 23:38:51 41° NNE 23:45:12 10° E
Meteor 2-20 Rocket 4.3 23:37:28 40° SSW 23:39:36 71° WNW 23:45:19 10° N
BlueWalker 3 2.5 23:41:17 39° E 23:41:17 39° E 23:43:50 10° ENE
Cosmos 2297 Rocket 2.5 23:43:29 32° SW 23:46:05 63° WNW 23:51:43 10° NNE
Cosmos 1125 Rocket 4.1 23:42:06 10° NNW 23:47:19 55° ENE 23:50:47 21° SE
Okean 3 Rocket 3.6 23:43:31 10° N 23:48:03 76° E 23:49:21 46° SSE
Landsat 5 3.3 23:46:56 10° N 23:51:01 75° WNW 23:51:40 59° SW
Cosmos 1340 Rocket 3.7 23:48:22 10° N 23:52:01 40° ENE 23:53:20 30° ESE
Cosmos 1842 Rocket 3.5 23:53:33 53° SSW 23:54:30 76° WNW 23:58:56 10° N
